SCP
0 0 0 0 0 0 0 1 0 0 0 0 0 0 0 0 0 0 0 0 0 0 0 0 0 0 0 0 0 0 0 0 0 0 0 0 0 0 0 0 0 0 0
0 0 0 0 0 0 0 0 0 0 0 0 0 0 0 0 0 0 0 0 0 0 0 0 0 0 0 0 0 0 0 0 0 0 0 0 0 0 0 0 0 0 0
0 0 0 0 0 0 0 0 0 0 0 0 0 0 0 0 0 0 0 0 0 0 0 0 0 0 0 0 -0 -0 0 0 0 0 0 0 0 0 0 0 0 0 0
0 0 0 0 0 0 0 0 0 0 0 0 0 0 0 0 0 0 0 0 0 0 0 0 0 0 0 -0 -0 -0 0 0 0 0 0 0 0 0 0 0 0 0 0
0 0 0 0 0 0 0 0 0 0 0 0 0 0 0 0 0 0 0 0 0 0 0 0 0 0 0 0 0 0 0 0 0 0 0 0 0 0 0 0 0 0 0
-0 -0 0 0 -0 0 0 0 0 0 0 0 0 0 0 0 0 0 0 0 0 0 -0 0 0 0 0 0 0 0 0 0 0 0 0 0 0 0 0 0 0 0 0
0 0 0 -0 0 0 0 0 0 0 0 0 0 0 0 0 0 0 0 0 0 0 0 0 0 0 0 -0 -0 0 0 0 0 0 0 0 0 0 0 0 0 0 0
0 0 -0 0 0 0 0 0 -0 0 0 0 0 0 0 0 0 0 0 0 -0 0 0 0 0 0 0 0 0 0 0 0 0 0 0 0 0 0 0 0 0 0 0
0 0 0 0 0 -0 0 -0 -0 0 0 0 0 0 0 0 0 0 -0 0 0 0 0 0 0 0 0 0 0 0 0 0 0 0 0 0 0 0 0 0 0 0 0
0 0 0 0 0 0 0 -0 0 0 0 0 0 0 0 0 0 0 0 0 0 0 0 0 0 0 0 0 0 0 0 0 0 0 0 0 0 0 0 0 0 0 0
-0 0 0 0 0 0 -0 0 0 0 0 0 0 0 0 0 0 0 0 0 0 0 0 0 0 0 0 0 0 0 0 0 0 0 0 0 0 0 0 0 0 0 0
-0 -0 -0 0 0 -0 -0 -0 0 0 0 0 0 0 0 0 0 0 0 0 0 0 0 0 0 0 0 0 0 0 0 0 0 0 0 0 0 0 0 0 0 0 0
-0 -0 0 0 0 0 0 0 0 0 0 0 0 0 0 0 0 0 0 0 0 0 0 0 0 0 0 0 0 0 0 0 0 0 0 0 0 0 0 0 0 0 0
-0 -0 0 0 0 -0 0 0 0 0 0 0 0 0 0 0 0 0 0 0 0 0 0 0 0 0 0 0 0 0 0 0 0 0 0 0 0 0 0 0 0 0 0
-0 0 0 0 0 -0 -0 -0 0 0 0 0 0 0 0 0 0 0 0 0 0 0 0 0 0 0 0 0 0 0 0 0 0 0 0 0 0 0 0 0 0 0 0
-0 0 0 0 0 -0 -0 -0 0 0 0 0 0 0 0 0 0 0 0 0 0 0 0 0 0 0 0 0 0 0 0 0 0 0 0 0 0 0 0 0 0 0 0
-0 -0 -0 0 -0 0 0 0 0 0 0 0 0 0 0 0 0 0 0 0 0 0 0 0 0 0 0 0 0 0 0 0 0 0 0 0 0 0 0 0 0 0 0
-0 -0 -0 -0 -0 0 0 0 0 0 0 0 0 0 0 0 0 0 0 0 0 0 0 0 0 0 0 0 0 0 0 0 0 0 0 0 0 0 0 0 0 0 0
-0 -0 -0 0 0 -0 0 0 0 0 0 0 0 0 0 0 0 0 0 0 0 0 0 0 0 0 0 0 0 0 0 0 0 0 0 0 0 0 0 0 0 0 0
-0 -0 0 -0 -0 0 0 0 0 0 0 0 0 0 0 0 0 0 0 0 0 0 0 0 0 0 0 0 0 0 0 0 0 0 0 0 0 0 0 0 0 0 0
0 -0 -0 0 0 0 0 0 0 0 0 0 0 0 0 0 0 0 0 0 0 0 0 0 0 0 0 0 0 0 0 0 0 0 0 0 0 0 0 0 0 0 0
0 0 0 -0 -0 0 0 0 0 0 0 0 0 0 0 0 0 0 0 0 0 0 0 0 0 0 0 0 0 0 0 0 0 0 0 0 0 0 0 0 0 0 0
0 0 0 0 0 -0 -0 -0 0 0 0 0 0 0 -0 0 0 0 0 0 0 0 0 0 0 0 0 0 0 0 0 0 0 0 0 0 0 0 0 0 0 0 0
0 0 -0 0 0 -0 -0 -0 0 0 0 0 0 0 0 0 0 0 0 0 0 0 0 0 0 0 0 0 0 0 0 0 0 0 0 0 0 0 0 0 0 0 0
0 0 0 0 0 0 0 0 0 0 0 0 0 0 0 0 0 0 0 0 0 0 0 0 0 0 0 0 0 0 0 0 0 0 0 0 0 0 0 0 0 0 0
0 0 0 0 0 0 0 0 0 0 0 0 0 0 0 0 0 0 0 0 0 0 0 0 0 0 0 0 0 0 0 0 0 0 0 0 0 0 0 0 0 0 0
Wind_Speed_500mb
25 25 29 21 16 28 27 34 45 59 77 70 44 40 40 39 36 34 30 27 22 21 25 24 25 23 23 24 26 18 12 13 14 16 16 14 15 18 18 19 14 7 4
31 27 27 21 15 18 28 36 50 71 71 63 37 40 48 33 34 32 30 27 22 20 26 26 26 26 29 25 15 25 29 22 15 8 4 6 5 3 3 2 5 11 16
33 25 25 21 14 20 32 52 61 70 49 41 43 48 45 38 36 30 28 26 21 21 27 29 28 34 30 28 33 27 19 14 11 6 3 4 4 5 4 9 14 18 19
27 20 22 18 14 36 38 65 76 65 58 56 80 50 50 41 35 36 38 33 30 32 30 31 39 36 39 39 32 21 18 18 12 11 10 9 9 10 9 8 9 11 14
22 17 17 16 20 46 49 72 68 75 71 67 65 44 41 40 43 40 44 43 40 36 39 42 45 43 35 30 26 19 19 18 16 13 12 14 13 12 12 13 16 16 18
14 10 9 18 34 41 68 68 72 73 75 78 72 53 55 58 55 48 50 42 42 43 44 43 40 52 36 29 15 14 16 20 16 12 12 13 13 13 13 13 13 16 18
5 10 10 28 33 27 78 68 83 85 82 75 79 68 59 55 50 49 50 47 43 44 42 42 41 40 30 16 6 9 12 13 11 12 12 11 10 10 12 15 17 18 20
7 9 19 31 35 62 59 89 88 80 72 77 83 74 52 57 52 52 52 49 45 42 41 35 32 29 18 12 10 3 7 9 9 8 7 7 8 11 11 11 15 19 16
10 15 28 30 56 77 64 71 66 71 88 72 72 57 48 28 59 51 52 51 44 41 36 33 32 22 18 14 6 2 3 3 3 4 4 5 7 9 11 12 15 16 17
24 25 31 49 78 58 67 73 85 75 80 82 74 51 42 74 46 32 45 48 45 37 33 32 25 22 21 14 9 8 6 4 5 4 4 4 6 8 12 14 14 17 20
29 31 29 55 57 62 59 79 78 72 88 86 68 62 50 65 45 61 50 47 41 35 35 30 29 25 21 16 15 11 8 7 5 4 3 4 7 9 12 18 20 22 25
27 21 23 45 47 57 61 60 61 77 87 81 63 70 67 74 62 69 56 49 40 35 33 33 30 27 23 18 14 10 6 6 5 4 4 5 8 11 15 17 21 25 27
25 25 33 39 34 42 50 44 58 75 78 87 65 64 59 68 61 58 58 56 43 37 29 28 28 29 22 18 13 9 8 9 7 7 7 8 9 13 18 23 26 29 31
29 29 26 42 43 33 25 31 61 78 78 79 68 61 58 49 57 49 57 51 40 34 34 35 37 25 22 18 13 14 12 11 10 9 9 11 15 19 21 23 26 28 30
22 32 34 42 43 31 20 19 43 73 70 63 63 51 50 45 44 42 46 43 26 32 33 37 33 36 26 21 19 18 14 11 10 11 11 12 16 20 22 24 27 31 32
22 24 36 43 35 20 22 32 42 59 63 65 54 53 52 44 41 37 37 40 33 20 26 39 43 33 32 27 23 18 15 15 13 12 12 15 19 22 24 28 30 32 35
27 28 35 34 29 22 19 20 42 48 50 58 58 54 48 44 44 37 34 40 38 26 20 24 39 35 33 29 25 20 18 15 13 13 15 18 22 24 28 32 34 35 37
32 29 33 36 34 32 31 29 39 39 42 49 52 54 50 50 43 39 40 39 41 32 21 19 23 36 36 31 26 22 19 17 17 16 19 21 25 27 30 33 37 37 40
35 35 35 36 39 38 38 36 43 43 46 46 53 50 50 56 46 41 43 42 40 34 25 22 21 30 35 32 28 24 23 21 19 19 21 23 25 26 32 36 38 37 41
33 33 33 36 37 33 33 37 39 43 46 44 55 53 52 54 45 47 45 38 43 34 31 28 25 25 32 32 30 27 23 21 22 21 22 24 24 26 32 36 36 39 41
32 32 36 36 37 38 39 39 35 39 42 49 50 51 50 49 50 48 48 44 47 43 36 32 28 29 33 31 25 21 22 23 22 22 24 25 25 29 32 33 34 39 42
35 34 36 35 32 31 32 38 36 38 49 53 58 54 49 49 48 45 39 44 40 38 35 31 31 31 25 23 24 21 23 23 25 21 23 24 28 30 31 33 36 38 42
35 35 35 35 31 31 31 33 36 40 45 46 49 51 51 51 48 46 46 47 41 35 31 29 23 24 24 20 21 23 22 23 27 24 28 31 29 30 31 32 35 37 36
39 39 38 37 39 36 35 36 38 41 44 46 47 48 49 51 51 50 49 46 43 43 38 33 32 29 26 26 25 25 25 27 30 32 33 39 32 31 33 34 35 30 31
43 45 42 40 44 46 46 45 43 43 44 46 48 49 49 48 47 47 48 49 49 44 41 39 36 34 33 31 30 30 31 34 37 41 36 40 41 35 38 41 32 26 33
42 45 43 44 46 48 48 49 49 48 47 48 49 49 49 50 50 51 52 49 45 45 44 42 42 40 38 38 37 40 42 42 43 44 42 39 41 38 34 42 33 35 36
Wind_Direction_500mb
287 299 294 266 245 243 206 209 210 187 188 170 160 157 167 171 170 177 176 185 181 183 167 169 159 158 151 144 148 155 141 118 113 104 107 117 118 119 115 115 115 120 307
291 305 287 279 256 229 190 184 196 168 156 150 145 168 169 167 173 181 180 175 178 174 169 164 163 160 150 151 150 118 115 121 128 132 112 117 93 112 91 324 288 306 322
284 284 292 271 236 194 185 175 181 166 179 192 184 167 177 171 168 171 166 177 168 166 165 160 160 150 143 128 130 132 123 99 83 68 37 14 18 12 335 312 319 322 324
292 274 284 249 212 175 175 173 169 152 139 154 157 162 168 172 171 163 160 156 152 145 143 150 142 136 135 133 127 107 81 74 68 57 59 47 26 12 3 353 344 350 1
293 263 270 192 198 170 168 174 161 151 147 152 154 153 168 172 161 157 155 151 139 138 137 138 133 130 135 133 136 92 71 56 49 53 36 22 16 16 19 19 14 12 17
270 215 220 184 184 180 160 176 159 149 146 152 149 167 169 161 162 159 150 152 147 142 141 142 136 130 132 130 122 43 54 50 43 30 15 13 17 25 24 19 18 17 18
207 168 180 177 167 145 164 177 159 157 158 160 156 165 165 169 166 157 151 156 154 152 152 151 154 154 151 142 88 7 39 34 28 20 19 24 26 32 26 25 24 25 21
154 141 167 152 164 144 163 162 162 158 162 167 164 164 137 142 155 153 156 159 159 158 158 161 165 173 175 176 167 103 23 17 8 4 14 21 27 17 23 31 38 42 24
109 140 142 120 148 172 163 169 167 168 165 174 174 167 148 157 141 151 152 155 165 167 160 160 163 170 181 197 204 268 328 330 336 332 326 346 353 359 11 10 11 4 8
101 128 129 132 151 157 164 173 168 173 169 170 172 186 177 175 159 139 147 146 153 164 164 166 180 185 191 200 216 227 239 266 294 312 318 328 357 4 5 1 354 345 342
120 132 125 142 154 160 170 173 177 176 177 174 173 177 173 174 187 159 143 146 154 168 166 178 177 184 188 201 211 220 241 271 285 303 315 347 355 347 345 352 346 339 337
111 120 151 152 153 171 181 180 189 185 181 183 185 187 181 180 176 166 154 152 164 166 180 179 180 191 192 202 209 219 249 259 257 283 294 296 326 340 336 336 335 334 331
134 115 136 176 161 168 182 195 196 188 185 188 192 187 184 189 190 193 181 171 169 173 181 185 194 203 200 207 214 221 240 249 251 254 268 289 312 327 337 336 336 336 335
129 142 148 150 167 174 172 204 199 188 190 195 196 197 192 195 201 195 190 187 172 182 193 202 203 204 216 210 213 229 238 245 243 252 278 308 329 335 333 332 335 333 328
158 153 163 161 165 162 178 175 198 189 195 202 202 205 203 195 198 193 203 200 206 182 197 211 205 211 210 214 229 239 239 247 245 254 283 310 324 327 327 327 327 328 327
163 166 167 170 173 184 189 189 190 195 204 202 204 199 199 195 196 199 203 209 214 203 194 213 210 212 214 222 231 246 242 235 239 264 296 304 308 312 321 326 324 324 325
176 176 175 184 196 206 205 199 201 202 202 206 202 202 208 214 204 207 220 214 221 216 226 200 210 215 219 220 231 238 238 241 251 267 279 292 302 314 323 323 324 322 324
182 179 196 205 210 210 209 196 204 206 208 210 208 205 209 206 203 213 214 215 216 215 212 216 226 221 216 220 230 233 233 239 256 269 280 298 308 315 317 320 322 322 320
197 198 205 208 209 208 210 215 207 206 212 216 213 209 209 207 210 213 210 211 208 207 219 239 245 220 219 220 225 228 230 239 260 278 291 298 305 309 317 319 316 315 318
208 208 208 215 222 224 221 206 207 208 202 213 214 217 215 214 217 218 211 209 198 207 227 239 236 216 209 212 218 224 236 253 266 279 289 294 298 306 312 315 312 314 316
212 215 210 213 222 218 210 208 194 201 202 203 205 213 216 217 225 220 213 210 200 214 227 234 220 209 209 210 219 230 244 255 266 277 283 288 293 301 307 313 315 315 314
206 202 202 204 200 194 187 189 191 186 192 204 210 209 208 205 206 212 209 203 214 224 231 222 214 210 210 211 218 226 240 254 267 277 279 283 290 295 305 314 318 316 313
191 193 189 188 186 175 173 176 180 186 191 194 191 191 192 193 193 192 196 205 212 218 214 219 214 211 210 214 220 228 240 253 264 276 282 284 285 286 293 307 316 315 309
198 193 194 199 196 190 185 181 181 182 181 182 185 190 195 197 196 196 198 201 203 205 201 203 206 207 210 217 225 233 242 254 264 271 274 280 288 284 291 303 311 311 305
192 188 186 184 180 180 178 178 183 189 194 196 199 202 203 202 201 200 203 204 203 203 205 207 210 215 219 225 232 239 246 253 261 267 270 275 284 285 292 297 300 308 308
194 191 191 192 192 193 194 196 198 201 205 206 207 207 206 205 205 206 207 207 209 212 213 215 219 222 228 234 239 245 250 253 256 264 273 269 280 282 290 294 297 311 313
Wind_Speed_850mb
25 25 29 21 16 28 27 34 45 59 77 70 44 40 40 39 36 34 30 27 22 21 25 24 25 23 23 24 26 18 12 13 14 16 16 14 15 18 18 19 14 7 4
31 27 27 21 15 18 28 36 50 71 71 63 37 40 48 33 34 32 30 27 22 20 26 26 26 26 29 25 15 25 29 22 15 8 4 6 5 3 3 2 5 11 16
33 25 25 21 14 20 32 52 61 70 49 41 43 48 45 38 36 30 28 26 21 21 27 29 28 34 30 28 33 27 19 14 11 6 3 4 4 5 4 9 14 18 19
27 20 22 18 14 36 38 65 76 65 58 56 80 50 50 41 35 36 38 33 30 32 30 31 39 36 39 39 32 21 18 18 12 11 10 9 9 10 9 8 9 11 14
22 17 17 16 20 46 49 72 68 75 71 67 65 44 41 40 43 40 44 43 40 36 39 42 45 43 35 30 26 19 19 18 16 13 12 14 13 12 12 13 16 16 18
14 10 9 18 34 41 68 68 72 73 75 78 72 53 55 58 55 48 50 42 42 43 44 43 40 52 36 29 15 14 16 20 16 12 12 13 13 13 13 13 13 16 18
5 10 10 28 33 27 78 68 83 85 82 75 79 68 59 55 50 49 50 47 43 44 42 42 41 40 30 16 6 9 12 13 11 12 12 11 10 10 12 15 17 18 20
7 9 19 31 35 62 59 89 88 80 72 77 83 74 52 57 52 52 52 49 45 42 41 35 32 29 18 12 10 3 7 9 9 8 7 7 8 11 11 11 15 19 16
10 15 28 30 56 77 64 71 66 71 88 72 72 57 48 28 59 51 52 51 44 41 36 33 32 22 18 14 6 2 3 3 3 4 4 5 7 9 11 12 15 16 17
24 25 31 49 78 58 67 73 85 75 80 82 74 51 42 74 46 32 45 48 45 37 33 32 25 22 21 14 9 8 6 4 5 4 4 4 6 8 12 14 14 17 20
29 31 29 55 57 62 59 79 78 72 88 86 68 62 50 65 45 61 50 47 41 35 35 30 29 25 21 16 15 11 8 7 5 4 3 4 7 9 12 18 20 22 25
27 21 23 45 47 57 61 60 61 77 87 81 63 70 67 74 62 69 56 49 40 35 33 33 30 27 23 18 14 10 6 6 5 4 4 5 8 11 15 17 21 25 27
25 25 33 39 34 42 50 44 58 75 78 87 65 64 59 68 61 58 58 56 43 37 29 28 28 29 22 18 13 9 8 9 7 7 7 8 9 13 18 23 26 29 31
29 29 26 42 43 33 25 31 61 78 78 79 68 61 58 49 57 49 57 51 40 34 34 35 37 25 22 18 13 14 12 11 10 9 9 11 15 19 21 23 26 28 30
22 32 34 42 43 31 20 19 43 73 70 63 63 51 50 45 44 42 46 43 26 32 33 37 33 36 26 21 19 18 14 11 10 11 11 12 16 20 22 24 27 31 32
22 24 36 43 35 20 22 32 42 59 63 65 54 53 52 44 41 37 37 40 33 20 26 39 43 33 32 27 23 18 15 15 13 12 12 15 19 22 24 28 30 32 35
27 28 35 34 29 22 19 20 42 48 50 58 58 54 48 44 44 37 34 40 38 26 20 24 39 35 33 29 25 20 18 15 13 13 15 18 22 24 28 32 34 35 37
32 29 33 36 34 32 31 29 39 39 42 49 52 54 50 50 43 39 40 39 41 32 21 19 23 36 36 31 26 22 19 17 17 16 19 21 25 27 30 33 37 37 40
35 35 35 36 39 38 38 36 43 43 46 46 53 50 50 56 46 41 43 42 40 34 25 22 21 30 35 32 28 24 23 21 19 19 21 23 25 26 32 36 38 37 41
33 33 33 36 37 33 33 37 39 43 46 44 55 53 52 54 45 47 45 38 43 34 31 28 25 25 32 32 30 27 23 21 22 21 22 24 24 26 32 36 36 39 41
32 32 36 36 37 38 39 39 35 39 42 49 50 51 50 49 50 48 48 44 47 43 36 32 28 29 33 31 25 21 22 23 22 22 24 25 25 29 32 33 34 39 42
35 34 36 35 32 31 32 38 36 38 49 53 58 54 49 49 48 45 39 44 40 38 35 31 31 31 25 23 24 21 23 23 25 21 23 24 28 30 31 33 36 38 42
35 35 35 35 31 31 31 33 36 40 45 46 49 51 51 51 48 46 46 47 41 35 31 29 23 24 24 20 21 23 22 23 27 24 28 31 29 30 31 32 35 37 36
39 39 38 37 39 36 35 36 38 41 44 46 47 48 49 51 51 50 49 46 43 43 38 33 32 29 26 26 25 25 25 27 30 32 33 39 32 31 33 34 35 30 31
43 45 42 40 44 46 46 45 43 43 44 46 48 49 49 48 47 47 48 49 49 44 41 39 36 34 33 31 30 30 31 34 37 41 36 40 41 35 38 41 32 26 33
42 45 43 44 46 48 48 49 49 48 47 48 49 49 49 50 50 51 52 49 45 45 44 42 42 40 38 38 37 40 42 42 43 44 42 39 41 38 34 42 33 35 36
Wind_Direction_850mb
287 299 294 266 245 243 206 209 210 187 188 170 160 157 167 171 170 177 176 185 181 183 167 169 159 158 151 144 148 155 141 118 113 104 107 117 118 119 115 115 115 120 307
291 305 287 279 256 229 190 184 196 168 156 150 145 168 169 167 173 181 180 175 178 174 169 164 163 160 150 151 150 118 115 121 128 132 112 117 93 112 91 324 288 306 322
284 284 292 271 236 194 185 175 181 166 179 192 184 167 177 171 168 171 166 177 168 166 165 160 160 150 143 128 130 132 123 99 83 68 37 14 18 12 335 312 319 322 324
292 274 284 249 212 175 175 173 169 152 139 154 157 162 168 172 171 163 160 156 152 145 143 150 142 136 135 133 127 107 81 74 68 57 59 47 26 12 3 353 344 350 1
293 263 270 192 198 170 168 174 161 151 147 152 154 153 168 172 161 157 155 151 139 138 137 138 133 130 135 133 136 92 71 56 49 53 36 22 16 16 19 19 14 12 17
270 215 220 184 184 180 160 176 159 149 146 152 149 167 169 161 162 159 150 152 147 142 141 142 136 130 132 130 122 43 54 50 43 30 15 13 17 25 24 19 18 17 18
207 168 180 177 167 145 164 177 159 157 158 160 156 165 165 169 166 157 151 156 154 152 152 151 154 154 151 142 88 7 39 34 28 20 19 24 26 32 26 25 24 25 21
154 141 167 152 164 144 163 162 162 158 162 167 164 164 137 142 155 153 156 159 159 158 158 161 165 173 175 176 167 103 23 17 8 4 14 21 27 17 23 31 38 42 24
109 140 142 120 148 172 163 169 167 168 165 174 174 167 148 157 141 151 152 155 165 167 160 160 163 170 181 197 204 268 328 330 336 332 326 346 353 359 11 10 11 4 8
101 128 129 132 151 157 164 173 168 173 169 170 172 186 177 175 159 139 147 146 153 164 164 166 180 185 191 200 216 227 239 266 294 312 318 328 357 4 5 1 354 345 342
120 132 125 142 154 160 170 173 177 176 177 174 173 177 173 174 187 159 143 146 154 168 166 178 177 184 188 201 211 220 241 271 285 303 315 347 355 347 345 352 346 339 337
111 120 151 152 153 171 181 180 189 185 181 183 185 187 181 180 176 166 154 152 164 166 180 179 180 191 192 202 209 219 249 259 257 283 294 296 326 340 336 336 335 334 331
134 115 136 176 161 168 182 195 196 188 185 188 192 187 184 189 190 193 181 171 169 173 181 185 194 203 200 207 214 221 240 249 251 254 268 289 312 327 337 336 336 336 335
129 142 148 150 167 174 172 204 199 188 190 195 196 197 192 195 201 195 190 187 172 182 193 202 203 204 216 210 213 229 238 245 243 252 278 308 329 335 333 332 335 333 328
158 153 163 161 165 162 178 175 198 189 195 202 202 205 203 195 198 193 203 200 206 182 197 211 205 211 210 214 229 239 239 247 245 254 283 310 324 327 327 327 327 328 327
163 166 167 170 173 184 189 189 190 195 204 202 204 199 199 195 196 199 203 209 214 203 194 213 210 212 214 222 231 246 242 235 239 264 296 304 308 312 321 326 324 324 325
176 176 175 184 196 206 205 199 201 202 202 206 202 202 208 214 204 207 220 214 221 216 226 200 210 215 219 220 231 238 238 241 251 267 279 292 302 314 323 323 324 322 324
182 179 196 205 210 210 209 196 204 206 208 210 208 205 209 206 203 213 214 215 216 215 212 216 226 221 216 220 230 233 233 239 256 269 280 298 308 315 317 320 322 322 320
197 198 205 208 209 208 210 215 207 206 212 216 213 209 209 207 210 213 210 211 208 207 219 239 245 220 219 220 225 228 230 239 260 278 291 298 305 309 317 319 316 315 318
208 208 208 215 222 224 221 206 207 208 202 213 214 217 215 214 217 218 211 209 198 207 227 239 236 216 209 212 218 224 236 253 266 279 289 294 298 306 312 315 312 314 316
212 215 210 213 222 218 210 208 194 201 202 203 205 213 216 217 225 220 213 210 200 214 227 234 220 209 209 210 219 230 244 255 266 277 283 288 293 301 307 313 315 315 314
206 202 202 204 200 194 187 189 191 186 192 204 210 209 208 205 206 212 209 203 214 224 231 222 214 210 210 211 218 226 240 254 267 277 279 283 290 295 305 314 318 316 313
191 193 189 188 186 175 173 176 180 186 191 194 191 191 192 193 193 192 196 205 212 218 214 219 214 211 210 214 220 228 240 253 264 276 282 284 285 286 293 307 316 315 309
198 193 194 199 196 190 185 181 181 182 181 182 185 190 195 197 196 196 198 201 203 205 201 203 206 207 210 217 225 233 242 254 264 271 274 280 288 284 291 303 311 311 305
192 188 186 184 180 180 178 178 183 189 194 196 199 202 203 202 201 200 203 204 203 203 205 207 210 215 219 225 232 239 246 253 261 267 270 275 284 285 292 297 300 308 308
194 191 191 192 192 193 194 196 198 201 205 206 207 207 206 205 205 206 207 207 209 212 213 215 219 222 228 234 239 245 250 253 256 264 273 269 280 282 290 294 297 311 313